IRIDIUM 33 DEB, 35797

Orbit data source: Space-Track

IRIDIUM 33 DEB, 35797 is space debris in LEO originally from a launch on Sun, 14 Sep 1997 UTC launched from the Tyuratam Missile And Space Complex (TTMTR). The debris from Iridium 33, an American commercial communications satellite, has been tracked extensively since its accidental collision with the defunct Russian satellite Cosmos 2251 in 2009. This event, occurring at high speed in low Earth orbit (LEO), generated thousands of pieces of space debris, significantly increasing the risk of further collisions. The Iridium 33 debris cloud has impacted space traffic management and orbital debris mitigation strategies, making it a subject of ongoing study in space situational awareness.

Loading next visibility...
Identifier
35797, 1997-051SF
Orbit
LEO
Country
Flag of USUS
Related business
Manufacturer
Unknown
Mission
Spacecraft
Bus & Motor
Unknown
Mass
Unknown
Launch date (UTC)
1997-09-14 (29 years ago)
Launch vehicle
Unknown
Launch site
Tyuratam Missile And Space Complex (TTMTR)
Object type
Payload
Rocket body
Debris
Shape & HBR
Unknown shape, 0.1 m
Radar Cross Section
Small (<0.1 m²)

Expand to show TLE details & history
Last TLE update: 3 days ago

TLE from 3 days ago
0 IRIDIUM 33 DEB
1 35797U 97051SF  26206.32734466  .00012474  00000-0  13229-2 0  9991
2 35797  86.3324 226.1884 0013709  91.7464 268.5332 14.88924273906766
Epoch: 2026-07-25T07:51Z
TLE epoch observation values (Epoch: 2026-07-25T07:51:22.578Z)
Latitude
-0.00006°
Longitude
165.3031°
Altitude
604.681 km
Speed
7.557 km/s
True Right ascension
15h 04m 45s
True Declination
0° 00' 00"
Sunlit
Object was in daylight at epoch
Visualization orbit readout
Latitude
Unknown
Longitude
Unknown
Altitude
Unknown
Speed
Unknown
Apparent Right ascension
Unknown
Apparent Declination
Unknown
Sunlit
N/A
Visualization observer readout
Local Sidereal Time
21:18:51
Azimuth
Unknown
Elevation
Unknown
Doppler factor
Unknown
Orbital elements
Apogee altitude
607.748 km
Perigee altitude
588.62 km
Semi-major axis
6,976.321 km
Eccentricity
0.00137
Inclination
86.3324°
RAAN
226.1884°
Arg. of periapsis
91.7464°
True anomaly
268.37616°
Mean anomaly
268.5332°
Eccentric anomaly
268.45468°
Mean motion
3.7248 °/min
Orbital period
96.65 mins
BSTAR
0.0013229
Loading maneuver chart data...
Computing Atmospheric mass density...
Loading historical data...
Loading historical data...
Loading historical data...
Loading historical data...
Loading historical data...
Loading historical data...
Loading historical data...

Documentation

Showing up to 5 results
|